Location: Newark
(34.0429°S, 151.2068°E)
Time: 13:53:16
(UTC+00:00)

Envisat - Visible Passes

Search period start: 07 April 2020 00:00
Search period end: 17 April 2020 00:00
Orbit: 764 x 766 km, 98.1° (Epoch: 07 April)

Date Brightness Start Highest point End Pass type
(mag) Time Alt. Az. Time Alt. Az. Time Alt. Az.
07 Apr 3.4 08:35:24 10° S 08:40:32 70° WSW 08:45:36 10° NNW visible
07 Apr 6.3 18:11:45 10° ESE 18:12:39 10° ESE 18:13:34 10° SE visible
07 Apr 3.0 19:45:50 10° N 19:50:55 79° WNW 19:56:06 10° SSW visible
08 Apr 3.2 07:58:46 10° SSE 08:03:46 49° E 08:08:40 10° N visible
08 Apr 5.8 09:39:07 10° SSW 09:42:19 17° WSW 09:45:31 10° WNW visible
08 Apr 4.3 19:09:27 10° NE 19:14:15 43° ESE 19:19:07 10° S visible
09 Apr 4.5 09:01:09 10° S 09:05:53 38° WSW 09:10:34 10° NW visible
09 Apr 5.7 18:34:14 10° ENE 18:37:47 19° ESE 18:41:21 10° SSE visible
10 Apr 3.0 08:24:04 10° SSE 08:29:15 90° W 08:34:21 10° NNW visible
10 Apr 3.2 19:34:32 10° NNE 19:39:37 80° ESE 19:44:47 10° S visible
11 Apr 5.5 09:27:18 10° SSW 09:31:08 21° WSW 09:34:55 10° WNW visible
11 Apr 4.8 18:58:28 10° NE 19:03:01 34° ESE 19:07:37 10° S visible
12 Apr 4.0 08:49:41 10° S 08:54:38 49° WSW 08:59:31 10° NNW visible
12 Apr 5.9 18:23:46 10° E 18:26:36 15° ESE 18:29:27 10° SSE visible
13 Apr 3.0 08:12:47 10° SSE 08:17:56 71° ENE 08:23:00 10° N visible
13 Apr 6.1 09:54:27 10° SW 09:56:16 12° WSW 09:58:06 10° W visible
13 Apr 3.6 19:23:19 10° NNE 19:28:21 62° ESE 19:33:26 10° S visible
14 Apr 5.1 09:15:39 10° SSW 09:19:56 27° WSW 09:24:10 10° NW visible
14 Apr 5.2 18:47:34 10° NE 18:51:47 27° ESE 18:56:02 10° SSE visible
15 Apr 3.5 08:38:16 10° S 08:43:22 63° WSW 08:48:23 10° NNW visible
15 Apr 6.1 18:13:44 10° E 18:15:26 12° ESE 18:17:09 10° SE visible
15 Apr 3.0 19:48:41 10° N 19:53:46 72° WNW 19:58:55 10° SSW visible
16 Apr 3.1 08:01:34 10° SSE 08:06:37 54° E 08:11:35 10° N visible
16 Apr 5.9 09:42:11 10° SSW 09:45:07 15° WSW 09:48:01 10° W visible
16 Apr 4.1 19:12:12 10° NE 19:17:05 48° ESE 19:22:01 10° S visible
